Regional Weather Roundup
Issued by NWS Spokane, WA

Home | Current Version | Previous Version | Text Only | Print | Product List | Glossary On
Versions: 1 2 3 4 5 6 7 8 9 10 11 12 13 14 15 16 17 18 19 20 21 22 23 24 25 26 27 28 29 30 31 32 33 34 35 36 37 38 39 40 41 42 43 44 45 46 47 48 49 50
000
NZUS01 KOTX 050410
RWROTX
EASTERN WASHINGTON/NORTHERN IDAHO ROUNDUP
NATIONAL WEATHER SERVICE, SPOKANE WA
800 PM PST WED MAR 04 2015

Note: "fair" indicated few or no clouds below 12,000 feet with no
significant weather and/or obstructions to visibility.

...NORTHEAST WASHINGTON AND NORTHERN IDAHO PANHANDLE...

CITY           SKY/WX    TMP DP  RH WIND       PRES   REMARKS
SPOKANE INTL   CLEAR     35  17  47 S6        30.24R
SPOKANE DOWNTO CLEAR     32  19  58 CALM      30.26R
COEUR D ALENE  CLEAR     36  18  48 SE9       30.24R
DEER PARK      CLEAR     26  19  74 CALM      30.25R
SANDPOINT      CLEAR     28  18  64 W3        30.24S
BONNERS FERRY  FAIR      27  16  63 CALM      30.23R

...SOUTHEAST WASHINGTON AND SOUTHERN IDAHO PANHANDLE...

CITY           SKY/WX    TMP DP  RH WIND       PRES   REMARKS
WALLA WALLA    CLEAR     39  18  42 E9        30.24S
PULLMAN/MOSCOW CLEAR     31  15  52 NE5       30.26F WCI  26
LEWISTON       CLEAR     37  15  40 S6        30.28S
LOWELL           N/A     30  21  69 CALM      30.36R

...COLUMBIA BASIN...

CITY           SKY/WX    TMP DP  RH WIND       PRES   REMARKS
EPHRATA        PTCLDY    34  22  61 N3        30.22S
MOSES LAKE     CLEAR     39  22  50 SE5       30.23F
TRI CITIES     CLEAR     39  19  44 E6        30.25F
HERMISTON      CLEAR     38  18  44 S5        30.23F
PENDLETON      CLEAR     36  15  42 SE7       30.22F

...EAST SLOPES CASCADES...

CITY           SKY/WX    TMP DP  RH WIND       PRES   REMARKS
THE DALLES     CLEAR     40  28  62 E3        30.24S
YAKIMA         CLEAR     38  26  62 W7        30.24R
ELLENSBURG     PTCLDY    35  24  64 N6        30.21S
WENATCHEE      PTCLDY    43  23  45 NW5       30.22S
OMAK           CLEAR     36  17  46 SW7       30.24R

...SOUTHERN BRITISH COLUMBIA...

CITY           SKY/WX    TMP DP  RH WIND       PRES   REMARKS
PENTICTON      CLEAR     28  16  59 CALM      30.26S
CRANBROOK      PTCLDY    21  12  68 W3        30.19R

...WESTERN MONTANA...

CITY           SKY/WX    TMP DP  RH WIND       PRES   REMARKS
MISSOULA       MOCLDY    31  14  49 NW8       30.23R WCI  23

...NEIGHBORING CITIES...

CITY           SKY/WX    TMP DP  RH WIND       PRES   REMARKS
SEATTLE        MOCLDY    47  22  37 N8        30.29R
CALGARY        CLEAR     23  12  63 VRB2      29.91R



USA.gov is the U.S. government's official web portal to all federal, state and local government web resources and services.